www.pogodaiklimat.ru

Погода и климат >> Архив погоды >> Австралия >> Западная Австралия >> Холс Крик


ПОГОДА в Холс Крик

  • Прогноз погоды в Холс Крик
  • Монитор погоды в Холс Крик

АРХИВ ПОГОДЫ в Холс Крик

Время (UTC), дата Ветер
(напр.,м/с)
 
Видим.   Явления Облачность Т
(С)
Тd
(С)
f
(%)
Тe
(С)
Тes
(С)
Комфортность P
(гПа)
Po
(гПа)
Тmin
(С)
Tmax
(С)
R
(мм)
R24
(мм)
S
(см)
22 9.01 ЮЗ 3 н/о 9/0
[]
+28.0 +18.1 55 +33 +33 очень
душно
1006.9 962.0
00 10.01 Ю 3 н/о н/о +32.6 +15.1 35 +35 +35 душно 1007.0 962.1
01 10.01 Ю 4 н/о н/о +35.6 +13.1 26 +36 +36 очень
жарко
1007.0 962.1 +26.0
03 10.01 ЮЗ 4 н/о н/о +37.9 +14.5 25 +39 +39 очень
душно
1006.0 961.1
04 10.01 В 5 н/о н/о +39.2 +14.3 23 +40 +40 очень
душно
1004.9 960.1
06 10.01 З 5 н/о н/о +38.0 +16.9 29 +41 +41 опасность
перегрева
1003.5 958.7
07 10.01 ЮЗ 7 н/о в посл. час дождь со снегом 9/0
[]
+34.6 +16.0 33 +37 +39 очень
душно
1003.0 958.3
09 10.01 ЮЗ 5 н/о н/о +34.2 +15.1 32 +36 +36 душно 1003.6 958.8
10 10.01 ЮЗ 4 н/о н/о +31.5 +17.0 42 +35 +35 очень
душно
1003.8 959.0
12 10.01 ЮВ 2 н/о н/о +32.9 +16.7 38 +36 +36 очень
душно
1005.9 961.0
13 10.01 З 3 н/о 10/0
[]
+32.9 +17.1 39 +36 +36 очень
душно
1006.1 961.2 +40.5
15 10.01 штиль 0 н/о н/о +30.4 +19.1 51 +36 +36 очень
душно
1005.7 960.8
16 10.01 штиль 0 н/о 1/0
[]
+29.7 +20.0 56 +36 +36 очень
душно
1005.2 960.4
18 10.01 СЗ 1 н/о н/о +28.7 +20.4 61 +35 +35 очень
душно
1004.7 959.9
19 10.01 З 1 н/о н/о +27.6 +19.9 63 +34 +34 очень
душно
1004.8 960.0
21 10.01 ЮЗ 3 н/о н/о +27.6 +20.4 65 +34 +34 очень
душно
1006.6 961.7
22 10.01 ЮЗ 3 н/о н/о +29.2 +20.9 61 +36 +36 очень
душно
1007.3 962.4
00 11.01 ЮЗ 4 н/о н/о +33.2 +20.4 47 +40 +40 очень
душно
1007.5 962.6
01 11.01 ЮЗ 5 н/о н/о +34.2 +20.2 44 +41 +41 опасность
перегрева
1007.5 962.6 +27.6
03 11.01 Ю 4 н/о н/о +37.7 +18.7 33 +42 +42 опасность
перегрева
1006.3 961.4
04 11.01 Ю 4 н/о н/о +38.5 +16.2 27 +40 +40 очень
душно
1005.4 960.6
06 11.01 З 8 н/о н/о +31.9 +17.8 43 +36 +36 очень
душно
1003.9 959.1
07 11.01 З 6 н/о {туман} 6/0
[]
+31.3 +19.3 49 +37 +40 очень
душно
1003.6 958.8
09 11.01 ЮЗ 4 н/о н/о +31.3 +19.6 50 +37 +37 очень
душно
1003.6 958.8
10 11.01 З 4 н/о н/о +29.7 +19.1 53 +35 +35 очень
душно
1003.8 959.0
12 11.01 ЮЗ 2 н/о н/о +28.0 +19.2 59 +34 +34 очень
душно
1004.6 959.8
13 11.01 ЮЗ 2 н/о н/о +27.4 +19.2 61 +33 +33 очень
душно
1005.1 960.3 +40.7
15 11.01 З 3 н/о н/о +27.2 +19.0 61 +32 +32 очень
душно
1005.4 960.6
16 11.01 З 3 н/о н/о +26.4 +19.5 66 +32 +32 очень
душно
1005.1 960.3
18 11.01 ЮЗ 4 н/о н/о +26.5 +20.3 69 +33 +33 очень
душно
1004.5 959.7
19 11.01 З 4 н/о н/о +26.8 +20.4 68 +33 +33 очень
душно
1004.5 959.7
21 11.01 З 4 н/о н/о +26.8 +20.6 69 +33 +33 очень
душно
1006.4 961.5
22 11.01 З 4 н/о н/о +28.3 +20.8 64 +35 +35 очень
душно
1007.4 962.5
00 12.01 ЮЗ 6 н/о н/о +33.9 +17.6 38 +38 +38 очень
душно
1008.1 963.1
01 12.01 ЮЗ 6 н/о н/о +35.0 +17.2 35 +38 +38 очень
душно
1007.8 962.8 +26.2
03 12.01 Ю 5 н/о н/о +39.7 +13.3 21 +40 +40 очень
душно
1006.4 961.5
04 12.01 ЮВ 5 н/о н/о +40.0 +12.0 19 +39 +39 очень
жарко
1005.3 960.5
06 12.01 С 2 н/о н/о +41.7 +10.8 16 +40 +40 очень
жарко
1002.5 957.8
07 12.01 ЮВ 3 н/о 6/0
[]
+42.0 +11.0 16 +41 +46 опасность
перегрева
1001.8 957.1
09 12.01 Ю 5 н/о н/о +38.2 +13.4 23 +38 +38 очень
жарко
1002.4 957.7
10 12.01 ЮЗ 4 н/о 9/0
[]
+37.8 +13.1 23 +38 +38 очень
жарко
1002.7 958.0
12 12.01 ЮЗ 2 н/о н/о +34.7 +15.1 31 +36 +36 душно 1004.4 959.6
13 12.01 штиль 0 н/о 9/0
[]
+34.2 +15.1 32 +36 +36 душно 1005.4 960.6 +44.1
15 12.01 СВ 7 н/о н/о +32.1 +16.8 40 +35 +35 очень
душно
1005.8 960.9
16 12.01 С 4 н/о 1/0
[]
+31.1 +17.0 43 +35 +35 очень
душно
1005.2 960.4
18 12.01 штиль 0 н/о н/о +28.3 +17.5 52 +32 +32 душно 1004.9 960.1
19 12.01 СВ 4 н/о 1/0
[]
+28.9 +18.4 53 +34 +34 очень
душно
1005.2 960.4
21 12.01 СВ 2 н/о н/о +28.4 +18.8 56 +34 +34 очень
душно
1006.8 961.9
22 12.01 В 2 н/о н/о +28.8 +19.1 56 +34 +34 очень
душно
1007.3 962.4
00 13.01 СВ 1 н/о н/о +32.4 +17.8 42 +37 +37 очень
душно
1007.9 962.9
01 13.01 В 3 н/о н/о +34.5 +16.8 35 +37 +37 очень
душно
1007.9 962.9 +28.1
03 13.01 В 6 н/о н/о +38.4 +17.2 29 +41 +41 опасность
перегрева
1006.2 961.3
04 13.01 В 7 н/о 3/0
[]
+38.7 +16.3 27 +41 +47 опасность
перегрева
1005.1 960.3
06 13.01 В 8 н/о н/о +38.0 +17.4 30 +41 +41 опасность
перегрева
1003.5 958.7
07 13.01 Ю 3 н/о в посл. час дождь со снегом {туман} 5/0
[]
+35.9 +20.2 40 +42 +48 опасность
перегрева
1002.6 957.9
09 13.01 В 7 н/о н/о +38.5 +14.3 24 +39 +39 душно 1002.2 957.5
10 13.01 СВ 6 н/о 1/0
[]
+37.2 +15.6 28 +39 +39 очень
душно
1003.0 958.3
12 13.01 ЮЗ 2 н/о н/о +29.7 +21.4 61 +38 +38 очень
душно
1004.6 959.8
13 13.01 штиль 0 н/о {туман} н/о +29.7 +21.6 62 +38 +38 очень
душно
1005.3 960.5 +41.5
15 13.01 В 1 н/о н/о +31.8 +18.0 44 +36 +36 очень
душно
1005.7 960.8
16 13.01 Ю 9 н/о 10/0
[]
+25.3 +19.0 68 +30 +30 душно 1005.8 960.9
18 13.01 штиль 0 н/о н/о +25.0 +20.3 75 +31 +31 очень
душно
1003.1 958.4
19 13.01 СВ 3 н/о н/о +25.5 +19.6 70 +31 +31 очень
душно
1003.6 958.8
21 13.01 штиль 0 н/о н/о +25.9 +19.3 67 +31 +31 очень
душно
1004.9 960.1
22 13.01 СВ 1 н/о н/о +27.9 +19.4 60 +34 +34 очень
душно
1005.7 960.8
00 14.01 С 2 н/о н/о +32.3 +19.9 48 +38 +38 очень
душно
1006.1 961.2
01 14.01 СВ 3 н/о н/о +34.3 +20.3 44 +41 +41 опасность
перегрева
1006.1 961.2 +24.5
03 14.01 В 3 н/о н/о +36.8 +18.4 34 +41 +41 опасность
перегрева
1004.6 959.8
04 14.01 В 4 н/о 1/0
[]
+38.1 +17.5 30 +41 +56 опасность
перегрева
1003.5 958.7
06 14.01 Ю 6 н/о н/о +32.9 +17.1 39 +36 +36 очень
душно
1001.4 956.7
07 14.01 ЮЗ 3 н/о 1/0
[]
+33.9 +17.6 38 +38 +46 очень
душно
1001.5 956.8
09 14.01 ЮЗ 5 н/о н/о +32.0 +18.6 45 +37 +37 очень
душно
1002.4 957.7
10 14.01 ЮЗ 3 н/о 1/0
[]
+31.6 +19.6 49 +37 +37 очень
душно
1002.9 958.2
12 14.01 штиль 0 н/о н/о +29.2 +18.9 54 +35 +35 очень
душно
1004.9 960.1
13 14.01 штиль 0 н/о н/о +28.3 +19.0 57 +34 +34 очень
душно
1005.3 960.5 +40.3
15 14.01 С 1 н/о н/о +28.0 +18.4 56 +33 +33 очень
душно
1005.3 960.5
16 14.01 С 3 н/о н/о +29.4 +18.2 51 +34 +34 очень
душно
1004.7 959.9
18 14.01 С 2 н/о н/о +27.2 +18.5 59 +32 +32 очень
душно
1004.6 959.8
19 14.01 штиль 0 н/о н/о +26.8 +18.6 61 +32 +32 очень
душно
1004.4 959.6
21 14.01 штиль 0 н/о н/о +24.6 +19.0 71 +30 +30 очень
душно
1005.9 961.0
22 14.01 штиль 0 н/о н/о +27.8 +19.8 62 +34 +34 очень
душно
1007.1 962.2
00 15.01 С 1 н/о н/о +30.4 +19.1 51 +36 +36 очень
душно
1007.4 962.5
01 15.01 СВ 2 н/о н/о +33.3 +18.3 41 +38 +38 очень
душно
1007.3 962.4 +24.6
03 15.01 СВ 4 н/о н/о +36.6 +16.2 30 +39 +39 очень
душно
1005.7 960.8
04 15.01 СВ 6 н/о н/о +38.5 +15.0 25 +40 +40 очень
душно
1004.6 959.8
06 15.01 СВ 7 н/о н/о +39.8 +13.4 21 +40 +40 очень
душно
1002.9 958.2
07 15.01 В 6 н/о ливневой дождь 10/10 1000 м
[]
+34.7 +14.0 29 +36 +36 душно 1002.9 958.2
09 15.01 СВ 4 н/о н/о +36.8 +14.7 27 +38 +38 очень
душно
1002.1 957.4
10 15.01 С 2 н/о н/о +35.7 +13.8 27 +36 +36 очень
жарко
1002.6 957.9
12 15.01 С 2 н/о н/о +33.4 +16.3 36 +36 +36 очень
душно
1004.1 959.3
13 15.01 С 3 н/о н/о +33.1 +16.5 37 +36 +36 очень
душно
1005.0 960.2 +41.3
15 15.01 С 3 н/о н/о +31.8 +16.9 41 +35 +35 очень
душно
1005.2 960.4
16 15.01 С 3 н/о н/о +30.9 +16.9 43 +34 +34 душно 1004.5 959.7
18 15.01 С 1 н/о н/о +29.2 +17.4 49 +33 +33 очень
душно
1004.6 959.8
19 15.01 З 2 н/о н/о +28.1 +17.6 53 +32 +32 душно 1004.6 959.8
21 15.01 З 1 н/о н/о +27.8 +19.6 61 +34 +34 очень
душно
1005.7 960.8
22 15.01 З 2 н/о н/о +28.7 +19.9 59 +35 +35 очень
душно
1006.6 961.7
00 16.01 З 3 н/о н/о +31.5 +19.5 49 +37 +37 очень
душно
1007.8 962.8
01 16.01 З 4 н/о н/о +33.1 +19.2 44 +38 +38 очень
душно
1007.8 962.8 +27.4
03 16.01 Ю 4 н/о н/о +35.6 +18.2 36 +40 +40 очень
душно
1006.5 961.6
04 16.01 Ю 3 н/о слаб. дождь {туман} 6/6 600 м
[]
+33.5 +22.6 53 +43 +51 опасность
перегрева
1005.3 960.5
06 16.01 ЮЗ 4 н/о н/о +25.2 +22.9 87 +33 +33 очень
душно
1004.0 959.2
07 16.01 Ю 4 н/о в посл. час дождь {туман} 1/0
[]
+32.0 +21.5 54 +40 +46 очень
душно
1003.1 958.4
09 16.01 Ю 1 н/о н/о +30.4 +22.3 62 +39 +39 очень
душно
1004.4 959.6
10 16.01 ЮЗ 4 н/о 9/0
[]
+30.0 +21.1 59 +38 +38 очень
душно
1003.9 959.1
12 16.01 СВ 3 н/о н/о +28.7 +21.2 64 +36 +36 очень
душно
1006.0 961.1
13 16.01 СВ 3 н/о н/о +27.6 +21.4 69 +35 +35 очень
душно
1006.6 961.7 +37.4
15 16.01 СВ 2 н/о н/о +27.6 +20.7 66 +34 +34 очень
душно
1006.6 961.7
16 16.01 ЮЗ 2 н/о 8/0
[]
+26.3 +21.5 75 +34 +34 очень
душно
1005.4 960.6
18 16.01 штиль 0 н/о н/о +25.2 +21.7 81 +32 +32 очень
душно
1004.0 959.2
19 16.01 З 3 н/о н/о +25.5 +20.7 75 +32 +32 очень
душно
1004.5 959.7

 

Местоположение метеостанции Холс Крик (Западная Австралия, Австралия): широта -18.23 долгота 127.66 высота над уровнем моря 424 м.

В архиве по умолчанию представлена погода в Холс Крик за последнюю неделю. Архивные данные за месяц целиком и за предыдущие месяцы, начиная с января 2011 года, Вы можете получить, выбрав интересующий диапазон дат из раскрывающегося списка и нажав кнопку "Ввод!".


*Определитесь, кто Вы:
робот инопланетянин человек

Внимание! Время в таблицах - всемирное. Для получения местного времени необходимо прибавить поправку, которая равна 8 ч.

Смотрите также архив погоды в соседних городах и на ближайших метеорологических станциях:

Погода в Аэропорту Аргайл (Западная Австралия, Австралия) (197 км)
Погода в Фицрой-Кроссинге (Западная Австралия, Австралия) (222 км)
Погода в Кунунарре (Западная Австралия, Австралия) (294 км)
Погода в Уиндеме (Западная Австралия, Австралия) (308 км)
Погода в Ладжаману (Северная территория, Австралия) (314 км)
Погода в Раббит Флат (Северная территория, Австралия) (329 км)
Погода в Виктория-Ривер (Северная территория, Австралия) (411 км)
Погода на Базе ВВС Curtin (Западная Австралия, Австралия) (413 км)
Погода в Дерби (Северная территория, Австралия) (435 км)
Погода в Калумбуру (Западная Австралия, Австралия) (450 км)

Пояснения к столбцам:

Ветер - указаны скорость ветра в м/с - средняя за 10 мин, порывы в срок и между сроками (в фигурных скобках) и направление, откуда дует ветер: С - северный, СВ - северо-восточный, В - восточный, ЮВ - юго-восточный, Ю - южный, ЮЗ - юго-западный, З - западный, СЗ - северо-западный.
Видимость - горизонтальная дальность видимости в метрах или километрах. При видимости от 1 до 10 км при отсутствии осадков обычно наблюдается дымка, при ухудшении видимости до 1 км и менее - туман. В сухую погоду видимость может ухудшаться дымом, пылью или мглою.
Явления - указаны атмосферные явления, наблюдавшиеся в срок или в последний час перед сроком; фигурными скобками обозначены явления, наблюдавшиеся между сроками (за 1-3 часа до срока); квадратными скобками обозначены град или гололедные отложения с указанием их диаметра в мм.
Облачность - указаны через наклонную черту общая и нижняя облачность в баллах и высота нижней границы облаков в метрах; квадратными скобками обозначены формы облаков: Ci - перистые, Cs - перисто-слоистые, Cc - перисто-кучевые, Ac - высококучевые, As - высокослоистые, Sc - слоисто-кучевые, Ns - слоисто-дождевые, Cu - кучевые, Cb - кучево-дождевые. Подробнее классификацию облаков см. в Атласе облаков (PDF).
T - Температура воздуха - температура, измеренная на высоте 2 м над землей.
Td - Температура точки росы - температура, при понижении до которой содержащийся в воздухе водяной пар достигнет насыщения.
f - Относительная влажность воздуха - влажноcть воздуха, измеренная на высоте 2 м над землей.
Te - Эффективная температура - температура, которую ощущает одетый по сезону человек в тени. Характеристика душности погоды. При расчете учитывается влияние влажности воздуха и скорости ветра на теплоощущения человека.
Tes - Эффективная температура на солнце - температура, которую ощущает человек, с поправкой на солнечный нагрев. Характеристика знойности погоды. Зависит от высоты солнца над горизонтом, облачности и скорости ветра. Ночью, в пасмурную погоду, а также при ветре 12 м/с и более поправка равна нулю.
P - Атмосферное давление - приведенное к уровню моря атмосферное давление.
Po - Атмосферное давление - измеренное на уровне метеостанции атмосферное давление.
Tmin - Минимальная температура - минимум температуры воздуха на высоте 2 м над землей.
Tmax - Максимальная температура - максимум температуры воздуха на высоте 2 м над землей.
R - Количество осадков - Количество выпавших осадков за период времени, мм. При наведении курсора мыши на число - период времени, за который выпало указанное количество осадков.
R24 - Количество осадков - Количество выпавших осадков за 24 часа, мм.
S - Снежный покров - Высота снежного покрова, см. При наведении курсора мыши на число - состояние снежного покрова и степень покрытия местности в баллах.